Time,TemperatureF,DewpointF,PressureIn,WindDirection,WindDirectionDegrees,WindSpeedMPH,WindSpeedGustMPH,Humidity,HourlyPrecipIn,Conditions,Clouds,dailyrainin,SoftwareType,DateUTC
2013-03-16 00:32:00,45.0,-99.9,-100.00,NW,320,4.0,-999.0,-999,0.00,,,-99.99,,2013-03-16 05:32:00,
2013-03-16 00:42:00,45.0,-99.9,-100.00,NW,320,4.0,-999.0,-999,0.00,,,-99.99,,2013-03-16 05:42:00,
2013-03-16 00:53:00,45.0,-99.9,-100.00,NW,320,4.0,-999.0,-999,0.00,,,-99.99,,2013-03-16 05:53:00,
2013-03-16 01:03:00,46.0,-99.9,-100.00,NNW,329,5.0,-999.0,-999,0.00,,,-99.99,,2013-03-16 06:03:00,
2013-03-16 01:12:00,46.0,-99.9,-100.00,NNW,329,5.0,-999.0,-999,0.00,,,-99.99,,2013-03-16 06:12:00,
2013-03-16 01:22:00,46.0,-99.9,-100.00,NNW,329,5.0,-999.0,-999,0.00,,,-99.99,,2013-03-16 06:22:00,
2013-03-16 01:33:00,45.0,-99.9,-100.00,NNW,341,5.0,-999.0,-999,0.00,,,-99.99,,2013-03-16 06:33:00,
2013-03-16 01:42:00,45.0,-99.9,-100.00,NNW,341,5.0,-999.0,-999,0.00,,,-99.99,,2013-03-16 06:42:00,
2013-03-16 01:52:00,45.0,-99.9,-100.00,NNW,341,5.0,-999.0,-999,0.00,,,-99.99,,2013-03-16 06:52:00,
2013-03-16 02:02:00,45.0,-99.9,-100.00,NNW,339,9.0,-999.0,-999,0.00,,,-99.99,,2013-03-16 07:02:00,
2013-03-16 02:12:00,45.0,-99.9,-100.00,NNW,339,9.0,-999.0,-999,0.00,,,-99.99,,2013-03-16 07:12:00,
2013-03-16 02:22:00,45.0,-99.9,-100.00,NNW,339,9.0,-999.0,-999,0.00,,,-99.99,,2013-03-16 07:22:00,
2013-03-16 02:30:00,45.0,-99.9,-100.00,North,352,11.0,-999.0,-999,0.00,,,-99.99,,2013-03-16 07:30:00,
2013-03-16 02:32:00,45.0,-99.9,-100.00,NNW,347,10.0,-999.0,-999,0.00,,,-99.99,,2013-03-16 07:32:00,
2013-03-16 02:42:00,45.0,-99.9,-100.00,NNW,347,10.0,-999.0,-999,0.00,,,-99.99,,2013-03-16 07:42:00,
2013-03-16 02:53:00,45.0,-99.9,-100.00,NNW,347,10.0,-999.0,-999,0.00,,,-99.99,,2013-03-16 07:53:00,
2013-03-16 03:03:00,45.0,-99.9,-100.00,North,352,11.0,-999.0,-999,0.00,,,-99.99,,2013-03-16 08:03:00,
2013-03-16 03:12:00,45.0,-99.9,-100.00,North,352,11.0,-999.0,-999,0.00,,,-99.99,,2013-03-16 08:12:00,
2013-03-16 03:23:00,45.0,-99.9,-100.00,North,352,11.0,-999.0,-999,0.00,,,-99.99,,2013-03-16 08:23:00,
2013-03-16 03:30:00,43.0,-99.9,-100.00,NNW,344,8.0,-999.0,-999,0.00,,,-99.99,,2013-03-16 08:30:00,
2013-03-16 04:02:00,43.0,-99.9,-100.00,NNW,344,8.0,-999.0,-999,0.00,,,-99.99,,2013-03-16 09:02:00,
2013-03-16 04:12:00,43.0,-99.9,-100.00,NNW,344,8.0,-999.0,-999,0.00,,,-99.99,,2013-03-16 09:12:00,
2013-03-16 04:22:00,43.0,-99.9,-100.00,NNW,344,8.0,-999.0,-999,0.00,,,-99.99,,2013-03-16 09:22:00,
2013-03-16 05:30:00,38.0,-99.9,-100.00,North,358,13.0,-999.0,-999,0.00,,,-99.99,,2013-03-16 10:30:00,
2013-03-16 05:33:00,39.0,-99.9,-100.00,NNW,335,7.0,-999.0,-999,0.00,,,-99.99,,2013-03-16 10:33:00,
2013-03-16 05:42:00,39.0,-99.9,-100.00,NNW,335,7.0,-999.0,-999,0.00,,,-99.99,,2013-03-16 10:42:00,
2013-03-16 05:53:00,39.0,-99.9,-100.00,NNW,335,7.0,-999.0,-999,0.00,,,-99.99,,2013-03-16 10:53:00,
2013-03-16 06:03:00,38.0,-99.9,-100.00,North,358,13.0,-999.0,-999,0.00,,,-99.99,,2013-03-16 11:03:00,
2013-03-16 06:12:00,38.0,-99.9,-100.00,North,358,13.0,-999.0,-999,0.00,,,-99.99,,2013-03-16 11:12:00,
2013-03-16 06:22:00,38.0,-99.9,-100.00,North,358,13.0,-999.0,-999,0.00,,,-99.99,,2013-03-16 11:22:00,
2013-03-16 07:02:00,38.0,-99.9,-100.00,NNW,348,13.0,-999.0,-999,0.00,,,-99.99,,2013-03-16 12:02:00,
2013-03-16 07:12:00,38.0,-99.9,-100.00,NNW,348,13.0,-999.0,-999,0.00,,,-99.99,,2013-03-16 12:12:00,
2013-03-16 07:23:00,38.0,-99.9,-100.00,NNW,348,13.0,-999.0,-999,0.00,,,-99.99,,2013-03-16 12:23:00,
2013-03-16 07:32:00,38.0,-99.9,-100.00,NNW,348,11.0,-999.0,-999,0.00,,,-99.99,,2013-03-16 12:32:00,
2013-03-16 07:43:00,38.0,-99.9,-100.00,NNW,348,11.0,-999.0,-999,0.00,,,-99.99,,2013-03-16 12:43:00,
2013-03-16 07:53:00,38.0,-99.9,-100.00,NNW,348,11.0,-999.0,-999,0.00,,,-99.99,,2013-03-16 12:53:00,
2013-03-16 08:03:00,38.0,-99.9,-100.00,NNW,331,10.0,-999.0,-999,0.00,,,-99.99,,2013-03-16 13:03:00,
2013-03-16 08:12:00,38.0,-99.9,-100.00,NNW,331,10.0,-999.0,-999,0.00,,,-99.99,,2013-03-16 13:12:00,
2013-03-16 08:23:00,38.0,-99.9,-100.00,NNW,331,10.0,-999.0,-999,0.00,,,-99.99,,2013-03-16 13:23:00,
2013-03-16 08:32:00,38.0,-99.9,-100.00,NNW,335,8.0,-999.0,-999,0.00,,,-99.99,,2013-03-16 13:32:00,
2013-03-16 08:43:00,38.0,-99.9,-100.00,NNW,335,8.0,-999.0,-999,0.00,,,-99.99,,2013-03-16 13:43:00,
2013-03-16 08:53:00,38.0,-99.9,-100.00,NNW,335,8.0,-999.0,-999,0.00,,,-99.99,,2013-03-16 13:53:00,
2013-03-16 09:03:00,39.0,-99.9,-100.00,NNW,332,9.0,-999.0,-999,0.00,,,-99.99,,2013-03-16 14:03:00,
2013-03-16 09:12:00,39.0,-99.9,-100.00,NNW,332,9.0,-999.0,-999,0.00,,,-99.99,,2013-03-16 14:12:00,
2013-03-16 09:22:00,39.0,-99.9,-100.00,NNW,332,9.0,-999.0,-999,0.00,,,-99.99,,2013-03-16 14:22:00,
2013-03-16 09:30:00,39.0,-99.9,-100.00,NNW,348,12.0,-999.0,-999,0.00,,,-99.99,,2013-03-16 14:30:00,
2013-03-16 09:32:00,39.0,-99.9,-100.00,NNW,337,11.0,-999.0,-999,0.00,,,-99.99,,2013-03-16 14:32:00,
2013-03-16 09:42:00,39.0,-99.9,-100.00,NNW,337,11.0,-999.0,-999,0.00,,,-99.99,,2013-03-16 14:42:00,
2013-03-16 09:53:00,39.0,-99.9,-100.00,NNW,337,11.0,-999.0,-999,0.00,,,-99.99,,2013-03-16 14:53:00,
2013-03-16 10:03:00,39.0,-99.9,-100.00,NNW,348,12.0,-999.0,-999,0.00,,,-99.99,,2013-03-16 15:03:00,
2013-03-16 10:13:00,39.0,-99.9,-100.00,NNW,348,12.0,-999.0,-999,0.00,,,-99.99,,2013-03-16 15:13:00,
2013-03-16 10:23:00,39.0,-99.9,-100.00,NNW,348,12.0,-999.0,-999,0.00,,,-99.99,,2013-03-16 15:23:00,
2013-03-16 10:30:00,39.0,-99.9,-100.00,North,1,14.0,-999.0,-999,0.00,,,-99.99,,2013-03-16 15:30:00,
2013-03-16 10:44:00,39.0,-99.9,-100.00,North,350,13.0,-999.0,-999,0.00,,,-99.99,,2013-03-16 15:44:00,
2013-03-16 10:53:00,39.0,-99.9,-100.00,North,350,13.0,-999.0,-999,0.00,,,-99.99,,2013-03-16 15:53:00,
2013-03-16 11:03:00,39.0,-99.9,-100.00,North,1,14.0,-999.0,-999,0.00,,,-99.99,,2013-03-16 16:03:00,
2013-03-16 11:13:00,39.0,-99.9,-100.00,North,1,14.0,-999.0,-999,0.00,,,-99.99,,2013-03-16 16:13:00,
2013-03-16 11:23:00,39.0,-99.9,-100.00,North,1,14.0,-999.0,-999,0.00,,,-99.99,,2013-03-16 16:23:00,
2013-03-16 12:13:00,39.0,-99.9,-100.00,North,9,14.0,-999.0,-999,0.00,,,-99.99,,2013-03-16 17:13:00,
2013-03-16 12:23:00,39.0,-99.9,-100.00,North,9,14.0,-999.0,-999,0.00,,,-99.99,,2013-03-16 17:23:00,
2013-03-16 12:33:00,39.0,-99.9,-100.00,North,1,12.0,-999.0,-999,0.00,,,-99.99,,2013-03-16 17:33:00,
2013-03-16 12:43:00,39.0,-99.9,-100.00,North,1,12.0,-999.0,-999,0.00,,,-99.99,,2013-03-16 17:43:00,
2013-03-16 12:53:00,39.0,-99.9,-100.00,North,1,12.0,-999.0,-999,0.00,,,-99.99,,2013-03-16 17:53:00,
2013-03-16 13:03:00,39.0,-99.9,-100.00,North,2,11.0,-999.0,-999,0.00,,,-99.99,,2013-03-16 18:03:00,
2013-03-16 13:13:00,39.0,-99.9,-100.00,North,2,11.0,-999.0,-999,0.00,,,-99.99,,2013-03-16 18:13:00,
2013-03-16 13:23:00,39.0,-99.9,-100.00,North,2,11.0,-999.0,-999,0.00,,,-99.99,,2013-03-16 18:23:00,
2013-03-16 13:33:00,39.0,-99.9,-100.00,North,3,14.0,-999.0,-999,0.00,,,-99.99,,2013-03-16 18:33:00,
2013-03-16 13:43:00,39.0,-99.9,-100.00,North,3,14.0,-999.0,-999,0.00,,,-99.99,,2013-03-16 18:43:00,
2013-03-16 13:53:00,39.0,-99.9,-100.00,North,3,14.0,-999.0,-999,0.00,,,-99.99,,2013-03-16 18:53:00,
2013-03-16 14:02:00,39.0,-99.9,-100.00,North,352,11.0,-999.0,-999,0.00,,,-99.99,,2013-03-16 19:02:00,
2013-03-16 14:12:00,39.0,-99.9,-100.00,North,352,11.0,-999.0,-999,0.00,,,-99.99,,2013-03-16 19:12:00,
2013-03-16 14:23:00,39.0,-99.9,-100.00,North,352,11.0,-999.0,-999,0.00,,,-99.99,,2013-03-16 19:23:00,
2013-03-16 14:33:00,39.0,-99.9,-100.00,North,359,10.0,-999.0,-999,0.00,,,-99.99,,2013-03-16 19:33:00,
2013-03-16 14:43:00,39.0,-99.9,-100.00,North,359,10.0,-999.0,-999,0.00,,,-99.99,,2013-03-16 19:43:00,
2013-03-16 14:53:00,39.0,-99.9,-100.00,North,359,10.0,-999.0,-999,0.00,,,-99.99,,2013-03-16 19:53:00,
2013-03-16 15:00:00,39.0,-99.9,-100.00,North,3,10.0,-999.0,-999,0.00,,,-99.99,,2013-03-16 20:00:00,
2013-03-16 15:03:00,39.0,-99.9,-100.00,North,3,9.0,-999.0,-999,0.00,,,-99.99,,2013-03-16 20:03:00,
2013-03-16 15:13:00,39.0,-99.9,-100.00,North,3,9.0,-999.0,-999,0.00,,,-99.99,,2013-03-16 20:13:00,
2013-03-16 15:22:00,39.0,-99.9,-100.00,North,3,9.0,-999.0,-999,0.00,,,-99.99,,2013-03-16 20:22:00,
2013-03-16 15:33:00,39.0,-99.9,-100.00,North,3,10.0,-999.0,-999,0.00,,,-99.99,,2013-03-16 20:33:00,
2013-03-16 15:43:00,39.0,-99.9,-100.00,North,3,10.0,-999.0,-999,0.00,,,-99.99,,2013-03-16 20:43:00,
2013-03-16 15:53:00,39.0,-99.9,-100.00,North,3,10.0,-999.0,-999,0.00,,,-99.99,,2013-03-16 20:53:00,
2013-03-16 16:33:00,39.0,-99.9,-100.00,North,356,10.0,-999.0,-999,0.00,,,-99.99,,2013-03-16 21:33:00,
2013-03-16 16:44:00,39.0,-99.9,-100.00,North,356,10.0,-999.0,-999,0.00,,,-99.99,,2013-03-16 21:44:00,
2013-03-16 16:53:00,39.0,-99.9,-100.00,North,356,10.0,-999.0,-999,0.00,,,-99.99,,2013-03-16 21:53:00,
2013-03-16 17:03:00,39.0,-99.9,-100.00,North,359,9.0,-999.0,-999,0.00,,,-99.99,,2013-03-16 22:03:00,
2013-03-16 17:13:00,39.0,-99.9,-100.00,North,359,9.0,-999.0,-999,0.00,,,-99.99,,2013-03-16 22:13:00,
2013-03-16 17:23:00,39.0,-99.9,-100.00,North,359,9.0,-999.0,-999,0.00,,,-99.99,,2013-03-16 22:23:00,
2013-03-16 17:33:00,39.0,-99.9,-100.00,North,358,9.0,-999.0,-999,0.00,,,-99.99,,2013-03-16 22:33:00,
2013-03-16 17:43:00,39.0,-99.9,-100.00,North,358,9.0,-999.0,-999,0.00,,,-99.99,,2013-03-16 22:43:00,
2013-03-16 17:53:00,39.0,-99.9,-100.00,North,358,9.0,-999.0,-999,0.00,,,-99.99,,2013-03-16 22:53:00,
2013-03-16 18:03:00,39.0,-99.9,-100.00,NNW,348,5.0,-999.0,-999,0.00,,,-99.99,,2013-03-16 23:03:00,
2013-03-16 18:13:00,39.0,-99.9,-100.00,NNW,348,5.0,-999.0,-999,0.00,,,-99.99,,2013-03-16 23:13:00,
2013-03-16 18:23:00,39.0,-99.9,-100.00,NNW,348,5.0,-999.0,-999,0.00,,,-99.99,,2013-03-16 23:23:00,
2013-03-16 18:30:00,39.0,-99.9,-100.00,North,351,6.0,-999.0,-999,0.00,,,-99.99,,2013-03-16 23:30:00,
2013-03-16 18:33:00,39.0,-99.9,-100.00,NNW,345,4.0,-999.0,-999,0.00,,,-99.99,,2013-03-16 23:33:00,
2013-03-16 18:43:00,39.0,-99.9,-100.00,NNW,345,4.0,-999.0,-999,0.00,,,-99.99,,2013-03-16 23:43:00,
2013-03-16 18:53:00,39.0,-99.9,-100.00,NNW,345,4.0,-999.0,-999,0.00,,,-99.99,,2013-03-16 23:53:00,
2013-03-16 19:02:00,39.0,-99.9,-100.00,North,351,6.0,-999.0,-999,0.00,,,-99.99,,2013-03-17 00:02:00,
2013-03-16 19:13:00,39.0,-99.9,-100.00,North,351,6.0,-999.0,-999,0.00,,,-99.99,,2013-03-17 00:13:00,
2013-03-16 19:23:00,39.0,-99.9,-100.00,North,351,6.0,-999.0,-999,0.00,,,-99.99,,2013-03-17 00:23:00,
2013-03-16 20:03:00,39.0,-99.9,-100.00,North,11,9.0,-999.0,-999,0.00,,,-99.99,,2013-03-17 01:03:00,
2013-03-16 20:13:00,39.0,-99.9,-100.00,North,11,9.0,-999.0,-999,0.00,,,-99.99,,2013-03-17 01:13:00,
2013-03-16 20:23:00,39.0,-99.9,-100.00,North,11,9.0,-999.0,-999,0.00,,,-99.99,,2013-03-17 01:23:00,
2013-03-16 20:33:00,38.0,-99.9,-100.00,NNE,15,10.0,-999.0,-999,0.00,,,-99.99,,2013-03-17 01:33:00,
2013-03-16 20:43:00,38.0,-99.9,-100.00,NNE,15,10.0,-999.0,-999,0.00,,,-99.99,,2013-03-17 01:43:00,
2013-03-16 20:53:00,38.0,-99.9,-100.00,NNE,15,10.0,-999.0,-999,0.00,,,-99.99,,2013-03-17 01:53:00,
2013-03-16 21:03:00,38.0,-99.9,-100.00,NNE,23,10.0,-999.0,-999,0.00,,,-99.99,,2013-03-17 02:03:00,
2013-03-16 21:13:00,38.0,-99.9,-100.00,NNE,23,10.0,-999.0,-999,0.00,,,-99.99,,2013-03-17 02:13:00,
2013-03-16 21:23:00,38.0,-99.9,-100.00,NNE,23,10.0,-999.0,-999,0.00,,,-99.99,,2013-03-17 02:23:00,
2013-03-16 21:30:00,38.0,-99.9,-100.00,NNE,20,11.0,-999.0,-999,0.00,,,0.00,,2013-03-17 02:30:00,
2013-03-16 21:33:00,38.0,-99.9,-100.00,NNE,14,10.0,-999.0,-999,0.00,,,0.00,,2013-03-17 02:33:00,
2013-03-16 21:43:00,38.0,-99.9,-100.00,NNE,14,10.0,-999.0,-999,0.00,,,0.00,,2013-03-17 02:43:00,
2013-03-16 21:53:00,38.0,-99.9,-100.00,NNE,14,10.0,-999.0,-999,0.00,,,0.00,,2013-03-17 02:53:00,
2013-03-16 22:03:00,38.0,-99.9,-100.00,NNE,20,11.0,-999.0,-999,0.00,,,0.00,,2013-03-17 03:03:00,
2013-03-16 22:12:00,38.0,-99.9,-100.00,NNE,20,11.0,-999.0,-999,0.00,,,0.00,,2013-03-17 03:12:00,
2013-03-16 22:23:00,38.0,-99.9,-100.00,NNE,20,11.0,-999.0,-999,0.00,,,0.00,,2013-03-17 03:23:00,
2013-03-16 22:30:00,37.0,-99.9,-100.00,NNE,25,11.0,-999.0,-999,0.00,,,0.00,,2013-03-17 03:30:00,
2013-03-16 23:03:00,37.0,-99.9,-100.00,NNE,25,11.0,-999.0,-999,0.00,,,0.00,,2013-03-17 04:03:00,
2013-03-16 23:13:00,37.0,-99.9,-100.00,NNE,25,11.0,-999.0,-999,0.00,,,0.00,,2013-03-17 04:13:00,
2013-03-16 23:23:00,37.0,-99.9,-100.00,NNE,25,11.0,-999.0,-999,0.00,,,0.00,,2013-03-17 04:23:00,